This is the latest recevied weather packets stored in our database for station/object I1SXT-13. If no packets are shown the sender has not sent any weather packets the latest 10 day(s).
| Time | Temp. | Humidity | Pressure | Rain* | Wind** | Luminosity | Snow |
|---|---|---|---|---|---|---|---|
| 1777721366 | 21.11° C | 35% | 1025.8 hPa | 0 mm | - | - | - |
| 1777721069 | 21.67° C | 37% | 1025.8 hPa | 0 mm | - | - | - |
| 1777720765 | 21.67° C | 34% | 1026.1 hPa | 0 mm | - | - | - |
| 1777720468 | 21.67° C | 36% | 1025.8 hPa | 0 mm | - | - | - |
| 1777720164 | 21.11° C | 35% | 1025.7 hPa | 0 mm | - | - | - |
| 1777719867 | 21.11° C | 36% | 1026.3 hPa | 0 mm | - | - | - |
| 1777719570 | 20.56° C | 35% | 1025.8 hPa | 0 mm | - | - | - |
| 1777719266 | 21.11° C | 35% | 1026.1 hPa | 0 mm | - | - | - |
| 1777718969 | 20.56° C | 33% | 1026.4 hPa | 0 mm | - | - | - |
| 1777718664 | 20.56° C | 34% | 1026.1 hPa | 0 mm | - | - | - |
| 1777718367 | 20.56° C | 32% | 1026.6 hPa | 0 mm | - | - | - |
| 1777718070 | 20.56° C | 33% | 1026.1 hPa | 0 mm | - | - | - |
| 1777717766 | 21.11° C | 33% | 1026.6 hPa | 0 mm | - | - | - |
| 1777717469 | 21.11° C | 34% | 1026.2 hPa | 0 mm | - | - | - |
| 1777717165 | 20.56° C | 35% | 1027.3 hPa | 0 mm | - | - | - |
| 1777716868 | 20.56° C | 32% | 1026.9 hPa | 0 mm | - | - | - |
| 1777716563 | 20.56° C | 35% | 1026.8 hPa | 0 mm | - | - | - |
| 1777716266 | 20.56° C | 36% | 1027 hPa | 0 mm | - | - | - |
| 1777715969 | 20.56° C | 34% | 1027.1 hPa | 0 mm | - | - | - |
| 1777715665 | 20.56° C | 34% | 1027.4 hPa | 0 mm | - | - | - |
| 1777715064 | 20.56° C | 34% | 1027.8 hPa | 0 mm | - | - | - |
| 1777714469 | 20° C | 34% | 1026.8 hPa | 0 mm | - | - | - |
| 1777714165 | 20° C | 36% | 1027.6 hPa | 0 mm | - | - | - |
| 1777713868 | 20° C | 36% | 1026.8 hPa | 0 mm | - | - | - |
| 1777713564 | 20° C | 35% | 1027.2 hPa | 0 mm | - | - | - |
* Rain since midnight (hover to see other rain measurements)
** Current wind speed in m/s (hover to see current wind gust speed)